| time (UTC) | temp F | wind direction | speed MPH | gust MPH | rain 1hr in | rain 24hr in | rain mn in | humidity % | barometer mb |
| 20260905110106 | 50 | 0 | 0.0 | 0.0 | 0.00 | 0.42 | 0.00 | 95 | 1013.7 |
| 20260905104606 | 51 | 0 | 0.0 | 0.0 | 0.00 | 0.42 | 0.00 | 95 | 1013.7 |
| 20260905103109 | 51 | 0 | 0.0 | 0.0 | 0.00 | 0.42 | 0.00 | 95 | 1013.9 |
| 20260905101607 | 51 | 25 | 2.0 | 5.0 | 0.00 | 0.42 | 0.00 | 95 | 1013.8 |
| 20260905100118 | 51 | 27 | 3.0 | 7.0 | 0.00 | 0.42 | 0.00 | 95 | 1013.8 |
| 20260905094625 | 52 | 35 | 3.0 | 8.0 | 0.00 | 0.42 | 0.00 | 94 | 1013.5 |
| 20260905093107 | 52 | 18 | 5.0 | 10.0 | 0.00 | 0.42 | 0.00 | 94 | 1013.8 |
| 20260905091616 | 52 | 31 | 3.0 | 9.0 | 0.00 | 0.42 | 0.00 | 94 | 1014.0 |
| 20260905090109 | 53 | 351 | 4.0 | 8.0 | 0.00 | 0.42 | 0.00 | 94 | 1014.0 |
| 20260905084604 | 53 | 4 | 4.0 | 10.0 | 0.00 | 0.42 | 0.00 | 94 | 1014.0 |
| 20260905083107 | 54 | 18 | 4.0 | 9.0 | 0.00 | 0.42 | 0.00 | 94 | 1013.9 |
| 20260905081607 | 54 | 45 | 5.0 | 9.0 | 0.00 | 0.42 | 0.00 | 94 | 1013.7 |
| 20260905080106 | 54 | 31 | 4.0 | 11.0 | 0.00 | 0.42 | 0.00 | 94 | 1013.7 |
| 20260905074606 | 54 | 12 | 6.0 | 12.0 | 0.00 | 0.42 | 0.00 | 93 | 1013.7 |
| 20260905073111 | 54 | 351 | 5.0 | 10.0 | 0.00 | 0.42 | 0.00 | 93 | 1013.8 |
| 20260905071612 | 55 | 18 | 3.0 | 6.0 | 0.00 | 0.42 | 0.00 | 93 | 1013.5 |
| 20260905070111 | 55 | 32 | 2.0 | 6.0 | 0.00 | 0.42 | 0.00 | 93 | 1013.3 |
| 20260905064616 | 56 | 30 | 3.0 | 5.0 | 0.00 | 0.42 | 0.00 | 93 | 1013.1 |
| 20260905063117 | 56 | 48 | 3.0 | 6.0 | 0.01 | 0.42 | 0.00 | 93 | 1013.0 |
| 20260905061622 | 57 | 23 | 3.0 | 8.0 | 0.01 | 0.42 | 0.00 | 93 | 1012.6 |
| 20260905060108 | 57 | 40 | 4.0 | 14.0 | 0.01 | 0.42 | 0.00 | 93 | 1012.5 |
| 20260905054621 | 57 | 8 | 5.0 | 16.0 | 0.02 | 0.42 | 0.42 | 93 | 1012.4 |
| 20260905053109 | 58 | 130 | 12.0 | 19.0 | 0.08 | 0.41 | 0.41 | 93 | 1011.9 |
| 20260905051612 | 58 | 127 | 12.0 | 17.0 | 0.14 | 0.41 | 0.41 | 93 | 1011.7 |
| 20260905050112 | 58 | 104 | 15.0 | 24.0 | 0.19 | 0.41 | 0.41 | 93 | 1011.4 |
| 20260905044611 | 57 | 104 | 15.0 | 21.0 | 0.23 | 0.40 | 0.40 | 92 | 1012.5 |
| 20260905043106 | 57 | 133 | 3.0 | 9.0 | 0.20 | 0.33 | 0.33 | 92 | 1014.3 |
| 20260905041605 | 57 | 147 | 5.0 | 9.0 | 0.18 | 0.27 | 0.27 | 91 | 1013.9 |
| 20260905040110 | 58 | 87 | 2.0 | 4.0 | 0.15 | 0.22 | 0.22 | 90 | 1014.3 |
| 20260905034614 | 58 | 0 | 0.0 | 3.0 | 0.11 | 0.17 | 0.17 | 90 | 1014.3 |
| 20260905033111 | 58 | 346 | 2.0 | 4.0 | 0.07 | 0.13 | 0.13 | 90 | 1013.6 |
| 20260905031616 | 58 | 224 | 1.0 | 4.0 | 0.05 | 0.09 | 0.09 | 89 | 1013.6 |
| 20260905030112 | 59 | 316 | 3.0 | 8.0 | 0.03 | 0.07 | 0.07 | 88 | 1013.5 |
| 20260905024609 | 59 | 73 | 3.0 | 5.0 | 0.03 | 0.06 | 0.06 | 88 | 1012.4 |
| 20260905023137 | 59 | 312 | 2.0 | 4.0 | 0.03 | 0.06 | 0.06 | 88 | 1012.0 |
| 20260905021605 | 59 | 62 | 3.0 | 9.0 | 0.01 | 0.04 | 0.04 | 88 | 1011.0 |
| 20260905020108 | 60 | 49 | 4.0 | 6.0 | 0.01 | 0.04 | 0.04 | 86 | 1011.1 |
| 20260905014616 | 60 | 102 | 4.0 | 7.0 | 0.01 | 0.03 | 0.03 | 85 | 1011.3 |
| 20260905013104 | 61 | 83 | 4.0 | 8.0 | 0.03 | 0.03 | 0.03 | 83 | 1011.1 |
| 20260905011609 | 62 | 74 | 4.0 | 8.0 | 0.03 | 0.03 | 0.03 | 82 | 1010.8 |
| 20260905010107 | 63 | 27 | 4.0 | 11.0 | 0.03 | 0.03 | 0.03 | 81 | 1010.8 |
| 20260905004612 | 65 | 95 | 11.0 | 15.0 | 0.02 | 0.02 | 0.02 | 77 | 1010.4 |
| 20260905003106 | 67 | 149 | 3.0 | 5.0 | 0.00 | 0.00 | 0.00 | 71 | 1012.4 |
| 20260905001611 | 67 | 87 | 4.0 | 8.0 | 0.00 | 0.00 | 0.00 | 70 | 1011.8 |
| 20260905000124 | 68 | 64 | 4.0 | 8.0 | 0.00 | 0.00 | 0.00 | 69 | 1011.0 |
| 20260904234607 | 68 | 23 | 6.0 | 11.0 | 0.00 | 0.00 | 0.00 | 66 | 1011.0 |
| 20260904233108 | 69 | 43 | 7.0 | 14.0 | 0.00 | 0.00 | 0.00 | 66 | 1010.7 |
| 20260904231609 | 68 | 38 | 7.0 | 14.0 | 0.00 | 0.00 | 0.00 | 65 | 1010.5 |
| 20260904230106 | 70 | 19 | 5.0 | 9.0 | 0.00 | 0.00 | 0.00 | 66 | 1010.8 |
| 20260904224608 | 71 | 55 | 2.0 | 4.0 | 0.00 | 0.00 | 0.00 | 58 | 1011.2 |
| 20260904223107 | 72 | 0 | 0.0 | 2.0 | 0.00 | 0.00 | 0.00 | 59 | 1011.3 |
| 20260904221608 | 73 | 39 | 1.0 | 4.0 | 0.00 | 0.00 | 0.00 | 57 | 1011.2 |
| 20260904220120 | 73 | 79 | 3.0 | 9.0 | 0.00 | 0.00 | 0.00 | 51 | 1010.9 |
| 20260904214614 | 73 | 109 | 5.0 | 10.0 | 0.00 | 0.00 | 0.00 | 49 | 1010.9 |
| 20260904213111 | 74 | 79 | 7.0 | 13.0 | 0.00 | 0.00 | 0.00 | 49 | 1010.3 |
| 20260904211614 | 75 | 77 | 7.0 | 12.0 | 0.00 | 0.00 | 0.00 | 45 | 1010.1 |
| 20260904210119 | 76 | 77 | 8.0 | 13.0 | 0.00 | 0.00 | 0.00 | 47 | 1009.9 |
| 20260904204604 | 76 | 43 | 8.0 | 13.0 | 0.00 | 0.00 | 0.00 | 45 | 1009.8 |
| 20260904203111 | 76 | 76 | 6.0 | 13.0 | 0.00 | 0.00 | 0.00 | 49 | 1009.6 |
| 20260904201606 | 75 | 60 | 8.0 | 13.0 | 0.00 | 0.00 | 0.00 | 48 | 1009.6 |
| 20260904200107 | 75 | 119 | 5.0 | 10.0 | 0.00 | 0.00 | 0.00 | 48 | 1010.2 |
| 20260904194612 | 74 | 108 | 3.0 | 10.0 | 0.00 | 0.00 | 0.00 | 49 | 1010.1 |
| 20260904193117 | 73 | 82 | 5.0 | 10.0 | 0.00 | 0.00 | 0.00 | 52 | 1010.2 |
| 20260904191606 | 73 | 108 | 4.0 | 8.0 | 0.00 | 0.00 | 0.00 | 51 | 1010.1 |
| 20260904190106 | 73 | 120 | 3.0 | 7.0 | 0.00 | 0.00 | 0.00 | 48 | 1010.2 |
| 20260904184621 | 74 | 145 | 4.0 | 10.0 | 0.00 | 0.00 | 0.00 | 48 | 1010.3 |
| 20260904183109 | 74 | 171 | 3.0 | 9.0 | 0.00 | 0.00 | 0.00 | 47 | 1010.2 |
| 20260904181612 | 74 | 90 | 5.0 | 8.0 | 0.00 | 0.00 | 0.00 | 47 | 1010.1 |
| 20260904180120 | 74 | 184 | 5.0 | 13.0 | 0.00 | 0.00 | 0.00 | 46 | 1010.1 |
| 20260904174620 | 73 | 181 | 4.0 | 8.0 | 0.00 | 0.00 | 0.00 | 48 | 1010.0 |
| 20260904173110 | 71 | 185 | 5.0 | 8.0 | 0.00 | 0.00 | 0.00 | 49 | 1010.1 |
| 20260904171607 | 69 | 197 | 1.0 | 7.0 | 0.00 | 0.00 | 0.00 | 53 | 1010.0 |
| 20260904170107 | 67 | 131 | 4.0 | 8.0 | 0.00 | 0.00 | 0.00 | 55 | 1009.9 |
| 20260904164621 | 66 | 215 | 6.0 | 9.0 | 0.00 | 0.00 | 0.00 | 59 | 1010.3 |
| 20260904163111 | 65 | 203 | 6.0 | 9.0 | 0.00 | 0.00 | 0.00 | 55 | 1010.4 |
| 20260904161606 | 65 | 207 | 6.0 | 9.0 | 0.00 | 0.00 | 0.00 | 56 | 1010.2 |
| 20260904160107 | 64 | 187 | 6.0 | 12.0 | 0.00 | 0.00 | 0.00 | 54 | 1010.2 |
| 20260904154608 | 61 | 194 | 6.0 | 10.0 | 0.00 | 0.00 | 0.00 | 62 | 1010.2 |
| 20260904153124 | 60 | 198 | 5.0 | 10.0 | 0.00 | 0.00 | 0.00 | 62 | 1010.2 |
| 20260904151606 | 59 | 197 | 7.0 | 10.0 | 0.00 | 0.00 | 0.00 | 64 | 1010.1 |
| 20260904150107 | 57 | 193 | 7.0 | 11.0 | 0.00 | 0.00 | 0.00 | 67 | 1010.2 |
| 20260904144611 | 56 | 204 | 6.0 | 11.0 | 0.00 | 0.00 | 0.00 | 70 | 1010.1 |
| 20260904143109 | 54 | 193 | 6.0 | 10.0 | 0.00 | 0.00 | 0.00 | 74 | 1010.0 |
| 20260904141607 | 53 | 209 | 6.0 | 9.0 | 0.00 | 0.00 | 0.00 | 76 | 1009.9 |
| 20260904140120 | 52 | 199 | 5.0 | 10.0 | 0.00 | 0.00 | 0.00 | 77 | 1009.7 |
| 20260904134605 | 51 | 197 | 6.0 | 9.0 | 0.00 | 0.00 | 0.00 | 79 | 1009.7 |
| 20260904133114 | 50 | 197 | 6.0 | 8.0 | 0.00 | 0.00 | 0.00 | 80 | 1009.6 |
| 20260904131615 | 50 | 198 | 5.0 | 8.0 | 0.00 | 0.00 | 0.00 | 80 | 1009.3 |
| 20260904130112 | 49 | 201 | 5.0 | 10.0 | 0.00 | 0.00 | 0.00 | 81 | 1009.0 |
| 20260904124612 | 49 | 193 | 6.0 | 9.0 | 0.00 | 0.00 | 0.00 | 81 | 1008.9 |
| 20260904123117 | 49 | 211 | 6.0 | 9.0 | 0.00 | 0.00 | 0.00 | 81 | 1008.9 |
| 20260904121609 | 49 | 210 | 6.0 | 8.0 | 0.00 | 0.00 | 0.00 | 81 | 1008.8 |
| 20260904120108 | 49 | 202 | 5.0 | 8.0 | 0.00 | 0.00 | 0.00 | 82 | 1008.6 |
| 20260904114606 | 48 | 201 | 6.0 | 10.0 | 0.00 | 0.00 | 0.00 | 83 | 1008.6 |
| 20260904113115 | 48 | 208 | 6.0 | 10.0 | 0.00 | 0.00 | 0.00 | 84 | 1008.3 |
| 20260904111624 | 48 | 202 | 6.0 | 9.0 | 0.00 | 0.00 | 0.00 | 84 | 1008.4 |